Volver al catálogo

STARLINK-3697

ActivoComunicacionesVLEO
NORAD 51962·PAYLOAD·🇺🇸 United States

Lanzado Mar 9, 2022 desde Cape Canaveral Space Force Station

Loading…

Próximos Pases (próximas 24 horas)

TLE

ActualizadoSource: CelesTrak SupGP

Época: Sep 15, 2026, 02:21 UTC

1 51962C 22025G   26258.09840278 -.00072917  00000+0 -23451-2 0  2587
2 51962  53.1569 222.8318 0001387  91.9136  65.2525 15.31733692    14

Sigue STARLINK-3697 en tiempo real con AllMySat

Download on the App Store